Weather History for Springfield, MO

Change the Weather History Date:

Thursday, March 21, 2013

  Actual Average Record
Temperature  
Mean Temperature 29 °F 48 °F  
Max Temperature 36 °F 59 °F 88 °F (1916)
Min Temperature 22 °F 37 °F 14 °F (1951)
Degree Days  
Heating Degree Days 36 17  
Month to date heating degree days 495 424  
Since 1 July heating degree days 3793 4017  
Cooling Degree Days 0 0  
Month to date cooling degree days 0 0  
Year to date cooling degree days 0 0  
Moisture  
Dew Point 24 °F    
Average Humidity 65    
Maximum Humidity 92    
Minimum Humidity 38    
Precipitation  
Precipitation 0.40 in 0.12 in 2.11 in (1921)
Month to date precipitation 3.54 2.35  
Year to date precipitation 8.88 7.34  
Snow  
Snow 3.00 in - - ()
Month to date snowfall 3.0  
Since 1 July snowfall 10.0  
Snow Depth 0.00 in    
Sea Level Pressure  
Sea Level Pressure 29.94 in    
Wind  
Wind Speed 11 mph (ESE)    
Max Wind Speed 20 mph    
Max Gust Speed 24 mph    
Visibility 4 miles    
Events Fog , Snow    
T = Trace of Precipitation, MM = Missing Value Source: NWS Daily Summary

Daily Weather History Graph

Daily Weather History Graph

Search for Another Location

Airport:

Trip Planner

Search our weather history database for the weather conditions in past years. The results will help you decide how hot, cold, wet, or windy it might be!

Date:

Astronomy

Mar. 21, 2013 Rise Set
Actual Time 7:15 AM CDT 7:26 PM CDT
Civil Twilight 6:49 AM CDT 7:52 PM CDT
Nautical Twilight 6:18 AM CDT 8:23 PM CDT
Astronomical Twilight 5:48 AM CDT 8:53 PM CDT
Moon 2:03 PM CDT (3/21) 3:30 AM CDT (3/21)
Length of Visible Light 13h 03m
Length of Day
12h 11m
Waxing Gibbous, 69% of the Moon is Illuminated
Mar 21
Waxing Gibbous
Mar 27
Full
Apr 2
Last Quarter
Apr 10
New
Apr 18
First Quarter

Hourly Weather History & Observations

Time (CDT) Temp. Windchill Dew Point Humidity Pressure Visibility Wind Dir Wind Speed Gust Speed Precip Events Conditions
12:52 AM 26.1 °F 20.5 °F 12.9 °F 58% 30.12 in 10.0 mi NE 4.6 mph - N/A   Clear
1:52 AM 24.1 °F - 14.0 °F 65% 30.10 in 10.0 mi Calm Calm - N/A   Clear
2:52 AM 26.1 °F 21.9 °F 14.0 °F 60% 30.10 in 10.0 mi NE 3.5 mph - N/A   Clear
3:52 AM 28.0 °F 21.7 °F 15.1 °F 58% 30.08 in 10.0 mi East 5.8 mph - N/A   Clear
4:52 AM 28.0 °F 22.8 °F 16.0 °F 61% 30.08 in 10.0 mi SE 4.6 mph - N/A   Clear
5:52 AM 28.9 °F 23.9 °F 14.0 °F 54% 30.07 in 10.0 mi ESE 4.6 mph - N/A   Mostly Cloudy
6:52 AM 30.0 °F 24.1 °F 10.0 °F 43% 30.07 in 10.0 mi East 5.8 mph - N/A   Overcast
7:52 AM 30.9 °F 24.3 °F 10.0 °F 42% 30.06 in 10.0 mi East 6.9 mph - N/A   Overcast
8:52 AM 30.9 °F 21.2 °F 10.0 °F 42% 30.05 in 10.0 mi East 12.7 mph - N/A   Overcast
9:52 AM 32.0 °F 23.6 °F 10.9 °F 42% 30.06 in 10.0 mi ESE 10.4 mph - N/A   Overcast
10:52 AM 34.0 °F 26.0 °F 10.0 °F 37% 30.04 in 10.0 mi ESE 10.4 mph - N/A   Overcast
11:52 AM 35.1 °F 26.4 °F 12.9 °F 40% 30.01 in 10.0 mi ESE 12.7 mph - N/A   Overcast
12:22 PM 36.0 °F 28.0 °F 18.0 °F 48% 29.97 in 10.0 mi ESE 11.5 mph - N/A   Overcast
12:52 PM 35.1 °F 25.9 °F 19.9 °F 54% 30.01 in 9.0 mi SE 13.8 mph - 0.00 in   Overcast
1:13 PM 34.0 °F 25.0 °F 24.1 °F 67% 29.97 in 2.5 mi ESE 12.7 mph - 0.00 in Snow Light Snow
1:29 PM 33.1 °F 23.9 °F 26.1 °F 75% 29.96 in 1.5 mi ESE 12.7 mph - 0.00 in Snow Light Snow
1:52 PM 32.0 °F 22.5 °F 27.0 °F 82% 29.99 in 1.0 mi SE 12.7 mph - 0.00 in Snow Light Snow
1:59 PM 32.0 °F 23.0 °F 28.0 °F 85% 29.95 in 0.8 mi ESE 11.5 mph - 0.00 in Snow Light Snow
2:11 PM 30.9 °F 21.7 °F 28.0 °F 89% 29.94 in 0.5 mi ESE 11.5 mph - 0.01 in Fog , Snow Snow
2:25 PM 30.9 °F 22.8 °F 28.0 °F 89% 29.93 in 0.8 mi ESE 9.2 mph - 0.02 in Snow Light Snow
2:35 PM 30.9 °F 23.5 °F 28.0 °F 89% 29.92 in 1.2 mi ESE 8.1 mph - 0.02 in Snow Light Snow
2:46 PM 30.2 °F 20.8 °F 28.4 °F 93% 29.92 in 2.0 mi ESE 11.5 mph - 0.02 in Snow Light Snow
2:47 PM 30.9 °F 21.7 °F 28.0 °F 89% 29.96 in 2.0 mi ESE 11.5 mph - 0.02 in Snow Light Snow
2:55 PM 32.0 °F 23.6 °F 28.0 °F 85% 29.92 in 2.0 mi ESE 10.4 mph - 0.00 in Snow Light Snow
3:03 PM 32.0 °F 23.6 °F 28.9 °F 88% 29.92 in 2.0 mi ESE 10.4 mph - 0.01 in Snow Light Snow
3:15 PM 30.9 °F 21.7 °F 28.0 °F 89% 29.92 in 7.0 mi SE 11.5 mph - 0.01 in Snow Light Snow
3:37 PM 30.9 °F 22.8 °F 28.0 °F 89% 29.92 in 2.0 mi ESE 9.2 mph - 0.01 in Snow Light Snow
3:44 PM 30.9 °F 21.2 °F 28.0 °F 89% 29.91 in 1.2 mi ESE 12.7 mph - 0.02 in Snow Light Snow
3:52 PM 30.9 °F 21.7 °F 28.0 °F 89% 29.94 in 2.0 mi ESE 11.5 mph - 0.03 in Snow Light Snow
3:58 PM 30.9 °F 23.5 °F 28.9 °F 92% 29.90 in 2.0 mi ESE 8.1 mph - 0.00 in Snow Light Snow
4:07 PM 30.9 °F 21.7 °F 28.9 °F 92% 29.90 in 1.0 mi ESE 11.5 mph - 0.00 in Snow Light Snow
4:15 PM 30.9 °F 22.2 °F 28.9 °F 92% 29.90 in 0.5 mi ESE 10.4 mph - 0.01 in Fog , Snow Snow
4:23 PM 30.9 °F 22.2 °F 28.9 °F 92% 29.90 in 0.2 mi ESE 10.4 mph - 0.03 in Fog , Snow Heavy Snow
4:40 PM 30.0 °F 20.0 °F 28.9 °F 96% 29.89 in 0.2 mi ESE 12.7 mph - 0.07 in Fog , Snow Heavy Snow
4:52 PM 30.0 °F 20.5 °F 28.9 °F 96% 29.93 in 0.2 mi ESE 11.5 mph - 0.10 in Fog , Snow Snow
5:15 PM 30.0 °F 20.5 °F 28.9 °F 96% 29.88 in 0.5 mi ESE 11.5 mph - 0.04 in Fog , Snow Light Snow
5:35 PM 30.0 °F 19.5 °F 28.9 °F 96% 29.87 in 0.8 mi ESE 13.8 mph - 0.09 in Snow Light Snow
5:39 PM 30.0 °F 20.0 °F 28.9 °F 96% 29.88 in 1.0 mi East 12.7 mph - 0.10 in Snow Light Snow
5:49 PM 30.2 °F 19.8 °F 28.4 °F 93% 29.87 in 1.8 mi ESE 13.8 mph - 0.11 in   Overcast
5:52 PM 30.9 °F 20.7 °F 28.9 °F 92% 29.91 in 2.0 mi ESE 13.8 mph - 0.11 in   Overcast
5:54 PM 30.9 °F 20.2 °F 28.9 °F 92% 29.87 in 2.0 mi East 15.0 mph - 0.00 in Snow Light Snow
6:22 PM 30.9 °F 22.2 °F 28.0 °F 89% 29.88 in 4.0 mi East 10.4 mph - 0.01 in Snow Light Snow
6:34 PM 30.9 °F 20.7 °F 28.0 °F 89% 29.88 in 1.8 mi ESE 13.8 mph - 0.02 in Snow Light Snow
6:42 PM 30.0 °F 18.7 °F 28.0 °F 92% 29.88 in 0.8 mi ESE 16.1 mph - 0.02 in Snow Light Snow
6:52 PM 30.0 °F 18.3 °F 28.0 °F 92% 29.91 in 0.8 mi ESE 17.3 mph - 0.03 in Snow Light Snow
7:03 PM 30.0 °F 19.5 °F 28.0 °F 92% 29.88 in 0.8 mi ESE 13.8 mph - 0.01 in Snow Light Snow
7:15 PM 30.0 °F 19.1 °F 28.0 °F 92% 29.88 in 0.2 mi ESE 15.0 mph - 0.02 in Fog , Snow Snow
7:23 PM 30.0 °F 19.1 °F 28.0 °F 92% 29.88 in 0.5 mi ESE 15.0 mph - 0.03 in Fog , Snow Light Snow
7:28 PM 30.0 °F 18.7 °F 28.0 °F 92% 29.88 in 1.0 mi ESE 16.1 mph - 0.03 in Snow Light Snow
7:35 PM 30.0 °F 19.1 °F 28.0 °F 92% 29.88 in 2.0 mi SE 15.0 mph - 0.03 in Snow Light Snow
7:39 PM 30.0 °F 19.1 °F 28.0 °F 92% 29.88 in 2.5 mi SE 15.0 mph - 0.04 in Snow Light Snow
7:52 PM 30.0 °F 20.0 °F 28.0 °F 92% 29.92 in 2.5 mi SE 12.7 mph - 0.05 in Snow Light Snow
7:58 PM 30.0 °F 19.5 °F 28.0 °F 92% 29.88 in 3.0 mi SE 13.8 mph - 0.00 in Snow Light Snow
8:05 PM 30.0 °F 19.1 °F 28.0 °F 92% 29.88 in 1.8 mi SE 15.0 mph - 0.00 in Snow Light Snow
8:48 PM 30.2 °F 20.2 °F 28.4 °F 93% 29.88 in 0.8 mi SE 12.7 mph - 0.02 in Snow Light Snow
8:52 PM 30.0 °F 19.5 °F 28.0 °F 92% 29.91 in 0.8 mi SE 13.8 mph - 0.02 in Snow Light Snow
9:07 PM 30.0 °F 20.0 °F 28.0 °F 92% 29.89 in 0.5 mi SE 12.7 mph - 0.02 in Fog , Snow Snow
9:14 PM 30.0 °F 20.5 °F 28.0 °F 92% 29.89 in 1.0 mi SE 11.5 mph - 0.03 in Snow Light Snow
9:31 PM 30.0 °F 19.1 °F 28.0 °F 92% 29.88 in 2.0 mi SE 15.0 mph - 0.04 in Snow Light Snow
9:41 PM 30.0 °F 19.5 °F 28.0 °F 92% 29.88 in 2.5 mi SE 13.8 mph - 0.04 in Snow Light Snow
9:52 PM 30.0 °F 18.7 °F 28.0 °F 92% 29.92 in 3.0 mi SE 16.1 mph - 0.04 in Snow Light Snow
10:52 PM 30.9 °F 20.7 °F 28.0 °F 89% 29.91 in 9.0 mi SE 13.8 mph - 0.00 in   Overcast
11:14 PM 30.9 °F 20.2 °F 28.0 °F 89% 29.88 in 8.0 mi SE 15.0 mph - 0.00 in   Overcast
11:52 PM 30.9 °F 21.2 °F 28.0 °F 89% 29.91 in 6.0 mi SE 12.7 mph - 0.00 in Snow Light Snow